Lancaster, PA

6:56 AM EST on February 11, 2016 (GMT -0500)
Lancaster

Weather History for KLNS - December, 2001

Change the Weather History Date:

Monday, December 31, 2001

  Actual Average Record
Temperature  
Mean Temperature 20 °F -  
Max Temperature 28 °F 38 °F 56 °F (1984)
Min Temperature 12 °F 22 °F 8 °F (1983)
Degree Days  
Heating Degree Days 45    
Moisture  
Dew Point 6 °F    
Average Humidity 58    
Maximum Humidity 77    
Minimum Humidity 36    
Precipitation  
Precipitation 0.00 in - - ()
Sea Level Pressure  
Sea Level Pressure 30.11 in    
Wind  
Wind Speed 7 mph (West)    
Max Wind Speed 16 mph    
Max Gust Speed -    
Visibility 10 miles    
Events      
Averages and records for this station are not official NWS values.
T = Trace of Precipitation, MM = Missing Value Source: NWS Daily Summary

Daily Weather History Graph

Daily Weather History Graph

Search for Another Location

Airport or City:

Trip Planner

Search our weather history database for the weather conditions in past years. The results will help you decide how hot, cold, wet, or windy it might be!

Date:

Astronomy

Dec. 31, 2001 Rise Set
Actual Time 7:27 AM EST 4:49 PM EST
Civil Twilight 6:56 AM EST 5:20 PM EST
Nautical Twilight 6:22 AM EST 5:54 PM EST
Astronomical Twilight 5:49 AM EST 6:27 PM EST
Moon 6:15 PM EST (12/31) 8:39 AM EST (12/31)
Length of Visible Light 10h 23m
Length of Day
9h 22m
Full, 98% of the Moon is Illuminated
Dec 31
Full
Jan 5
Last Quarter
Jan 13
New
Jan 21
First Quarter
Jan 28
Full

Hourly Weather History & Observations

Time (EST) Temp. Windchill Dew Point Humidity Pressure Visibility Wind Dir Wind Speed Gust Speed Precip Events Conditions
12:53 AM 18.0 °F 9.8 °F 5.0 °F 57% 30.09 in 10.0 mi WSW 5.8 mph - N/A   Clear
1:53 AM 15.1 °F 5.2 °F 5.0 °F 64% 30.09 in 10.0 mi West 6.9 mph - N/A   Clear
2:53 AM 15.1 °F 6.4 °F 6.1 °F 68% 30.10 in 10.0 mi West 5.8 mph - N/A   Clear
3:53 AM 14.0 °F 8.2 °F 6.1 °F 71% 30.10 in 10.0 mi NW 3.5 mph - N/A   Clear
4:53 AM 15.1 °F 7.7 °F 7.0 °F 70% 30.08 in 10.0 mi WNW 4.6 mph - N/A   Clear
5:53 AM 14.0 °F 8.2 °F 6.1 °F 71% 30.10 in 10.0 mi WSW 3.5 mph - N/A   Clear
6:53 AM 12.9 °F - 6.1 °F 74% 30.12 in 10.0 mi Calm Calm - N/A   Clear
7:53 AM 12.9 °F 5.2 °F 7.0 °F 77% 30.14 in 10.0 mi West 4.6 mph - N/A   Clear
8:53 AM 18.0 °F 9.8 °F 9.0 °F 68% 30.15 in 10.0 mi West 5.8 mph - N/A   Clear
9:53 AM 21.9 °F 8.7 °F 9.0 °F 58% 30.15 in 10.0 mi West 15.0 mph - N/A   Clear
10:53 AM 24.1 °F 12.0 °F 8.1 °F 51% 30.14 in 10.0 mi WNW 13.8 mph - N/A   Clear
11:53 AM 27.0 °F 15.2 °F 7.0 °F 43% 30.10 in 10.0 mi West 15.0 mph - N/A   Clear
12:53 PM 28.0 °F 16.1 °F 6.1 °F 39% 30.08 in 10.0 mi West 16.1 mph - N/A   Clear
1:53 PM 28.0 °F 17.0 °F 5.0 °F 38% 30.07 in 10.0 mi WNW 13.8 mph - N/A   Clear
2:53 PM 28.9 °F 19.8 °F 5.0 °F 36% 30.06 in 10.0 mi WNW 10.4 mph - N/A   Clear
3:53 PM 28.0 °F 18.6 °F 5.0 °F 38% 30.06 in 10.0 mi WNW 10.4 mph - N/A   Clear
4:53 PM 24.1 °F 17.0 °F 5.0 °F 44% 30.08 in 10.0 mi West 5.8 mph - N/A   Clear
5:53 PM 21.0 °F 13.4 °F 6.1 °F 53% 30.10 in 10.0 mi WNW 5.8 mph - N/A   Clear
6:53 PM 19.9 °F 14.9 °F 7.0 °F 57% 30.12 in 10.0 mi West 3.5 mph - N/A   Clear
7:53 PM 19.9 °F 13.4 °F 6.1 °F 55% 30.13 in 10.0 mi WNW 4.6 mph - N/A   Clear
8:53 PM 19.9 °F 10.1 °F 8.1 °F 60% 30.13 in 10.0 mi WNW 8.1 mph - N/A   Clear
9:53 PM 19.0 °F 7.5 °F 7.0 °F 59% 30.13 in 10.0 mi WNW 10.4 mph - N/A   Clear
10:53 PM 17.1 °F 6.6 °F 7.0 °F 65% 30.13 in 10.0 mi West 8.1 mph - N/A   Clear
11:53 PM 15.1 °F 3.3 °F 7.0 °F 70% 30.13 in 10.0 mi West 9.2 mph - N/A   Clear